Location: ČR
(50.0000°N, 15.0000°E)
Time: 23:35:14
(UTC+00:00)

BEESAT 3 - Visible Passes

Search period start: 06 December 2021 00:00
Search period end: 16 December 2021 00:00
Orbit: 476 x 511 km, 64.9° (Epoch: 06 December)

Date Brightness Start Highest point End Pass type
(mag) Time Alt. Az. Time Alt. Az. Time Alt. Az.
06 Dec ? 17:47:34 10° SSW 17:48:21 15° SSW 17:48:21 15° SSW visible
07 Dec ? 17:25:02 10° SSW 17:27:02 27° S 17:27:02 27° S visible
08 Dec ? 17:02:30 10° S 17:05:37 37° SE 17:05:37 37° SE visible
08 Dec ? 18:39:51 10° WSW 18:40:12 12° W 18:40:12 12° W visible
09 Dec ? 16:39:58 10° S 16:43:25 34° ESE 16:44:06 31° E visible
09 Dec ? 18:17:05 10° WSW 18:18:41 21° W 18:18:41 21° W visible
10 Dec ? 16:17:29 10° S 16:20:49 30° ESE 16:22:32 21° ENE visible
10 Dec ? 17:54:21 10° WSW 17:57:05 33° WNW 17:57:05 33° WNW visible
11 Dec ? 15:55:00 10° S 15:58:12 26° ESE 16:00:51 13° ENE visible
11 Dec ? 17:31:36 10° WSW 17:35:14 41° NW 17:35:24 41° NW visible
12 Dec ? 15:32:31 10° S 15:35:34 23° ESE 15:38:40 10° ENE visible
12 Dec ? 17:08:52 10° WSW 17:12:32 46° NW 17:13:40 35° N visible
13 Dec ? 16:46:08 10° WSW 16:49:50 51° NW 16:51:51 24° NNE visible
13 Dec ? 18:25:44 10° WNW 18:26:24 12° NW 18:26:24 12° NW visible
14 Dec ? 16:23:24 10° SW 16:27:09 57° NW 16:29:59 17° NNE visible
14 Dec ? 18:02:49 10° WNW 18:04:32 15° NW 18:04:32 15° NW visible
15 Dec ? 16:00:40 10° SW 16:04:26 65° NW 16:08:04 11° NE visible
15 Dec ? 17:39:54 10° WNW 17:42:21 16° NNW 17:42:37 16° NNW visible
